Home > Weather > Prince George > Past weeks

Flag for Canada Past Weather in Prince George, British Columbia, Canada — Yesterday and Last 2 Weeks

Now
73 °F

Sunny.


Feels Like: 77 °F
Forecast: 53 / 80 °F
Wind: 5 mph from Northeast

Location: Prince George

Current Time: Jul 26, 2016 at 8:52:29 PM

Latest Report: Jul 26, 2016 at 8:00 PM


Visibility: 9 mi

Pressure: 30.09 "Hg (28.17 "Hg at 573m altitude)

Humidity: 50%

Dew Point: 54 °F

Location of Prince GeorgeLocation

Past Weather in Prince George — Graph

°F

Prince George Temperature Yesterday

Maximum temperature yesterday: 73 °F (at 4:00 PM)
Minimum temperature yesterday: 46 °F (at 5:00 AM)
Average temperature yesterday: 62 °F

High & Low Weather Summary for the Past Weeks

 TemperatureHumidityPressure
High79 °F (Jul 17, 3:00 PM)100% (Jul 12, 3:57 PM)30.24 "Hg (Jul 12, 3:57 PM)
Low45 °F (Jul 15, 5:58 AM)34% (Jul 17, 6:00 PM)29.87 "Hg (Jul 11, 8:00 PM)
Average61 °F76%30.05 "Hg
* Reported Jul 11 7:00 PM — Jul 26 7:00 PM, Prince George, Weather by CustomWeather, © 2016

Note: Actual official high and low records may vary slightly from our data, if they occured in-between our weather recording intervals... More about our weather records

Advertising

Prince George Weather History for the Previous 24 Hours

Scroll right to see more
 ConditionsComfort  
Time TempWeatherWind HumidityBarometerVisibility
7:00 PM
Tue, Jul 26
75 °FSunny.7 mph39%30.10 "Hg9 mi
6:00 PM77 °FSunny.9 mph34%30.10 "Hg9 mi
5:00 PM77 °FSunny.7 mph36%30.11 "Hg9 mi
4:00 PM77 °FSunny.9 mph36%30.11 "Hg9 mi
3:00 PM77 °FSunny.6 mph42%30.12 "Hg9 mi
2:00 PM75 °FSunny.9 mph39%30.14 "Hg9 mi
1:00 PM73 °FSunny.13 mph41%30.15 "Hg9 mi
12:00 PM72 °FSunny.10 mph44%30.15 "Hg9 mi
11:00 AM68 °FSunny.3 mph56%30.16 "Hg9 mi
10:00 AM66 °FSunny.2 mph52%30.16 "Hg9 mi
9:00 AM64 °FSunny.2 mph60%30.15 "Hg9 mi
8:00 AM61 °FSunny.7 mph63%30.14 "Hg9 mi
7:00 AM54 °FSunny.5 mph82%30.14 "Hg9 mi
6:00 AM52 °FClear.3 mph82%30.14 "Hg9 mi
5:00 AM48 °FClear.3 mph87%30.13 "Hg9 mi
4:00 AM48 °FClear.3 mph94%30.11 "Hg9 mi
3:00 AM52 °FClear.3 mph88%30.10 "Hg9 mi
2:00 AM50 °FClear.5 mph94%30.09 "Hg9 mi
1:00 AM50 °FClear.2 mph94%30.08 "Hg9 mi
12:00 AM55 °FClear.3 mph88%30.06 "Hg9 mi
11:00 PM
Mon, Jul 25
57 °FClear.2 mph77%30.06 "Hg9 mi
10:00 PM59 °FSunny.2 mph77%30.05 "Hg9 mi
9:00 PM66 °FSunny.N/A60%30.03 "Hg9 mi
8:00 PM72 °FSunny.3 mph47%30.03 "Hg9 mi
Weather by CustomWeather, © 2016

See weather overviewHow to use our weather pages